Time,TemperatureF,DewpointF,PressureIn,WindDirection,WindDirectionDegrees,WindSpeedMPH,WindSpeedGustMPH,Humidity,HourlyPrecipIn,Conditions,Clouds,dailyrainin,SoftwareType,DateUTC
2013-02-12 00:00:00,48.6,43.7,29.88,North,0,4.0,4.0,83,0.00,,,0.00,WUHU216HW,2013-02-12 05:00:00,
2013-02-12 00:05:00,48.2,43.6,29.88,NNW,338,0.7,4.0,84,0.00,,,0.00,WUHU216HW,2013-02-12 05:05:00,
2013-02-12 00:10:00,47.9,43.3,29.88,NNW,338,2.2,4.7,84,0.00,,,0.00,WUHU216HW,2013-02-12 05:10:00,
2013-02-12 00:15:00,47.3,42.8,29.88,NW,315,3.4,4.7,84,0.00,,,0.00,WUHU216HW,2013-02-12 05:15:00,
2013-02-12 00:20:00,47.2,42.9,29.88,North,0,2.5,4.9,85,0.00,,,0.00,WUHU216HW,2013-02-12 05:20:00,
2013-02-12 00:25:00,46.8,42.6,29.88,NW,315,1.1,4.9,85,0.00,,,0.00,WUHU216HW,2013-02-12 05:25:00,
2013-02-12 00:30:00,46.4,42.2,29.88,NNW,338,1.8,4.5,85,0.00,,,0.00,WUHU216HW,2013-02-12 05:30:00,
2013-02-12 00:35:00,46.3,42.0,29.88,NNW,338,1.3,4.5,85,0.00,,,0.00,WUHU216HW,2013-02-12 05:35:00,
2013-02-12 00:40:00,46.1,41.9,29.88,NW,315,1.1,4.0,85,0.00,,,0.00,WUHU216HW,2013-02-12 05:40:00,
2013-02-12 00:45:00,45.7,41.5,29.89,WNW,293,0.4,2.7,85,0.00,,,0.00,WUHU216HW,2013-02-12 05:45:00,
2013-02-12 00:50:00,45.5,41.3,29.89,NNW,338,0.9,2.7,85,0.00,,,0.00,WUHU216HW,2013-02-12 05:50:00,
2013-02-12 00:55:00,45.4,41.1,29.89,NNW,338,0.9,1.8,85,0.00,,,0.00,WUHU216HW,2013-02-12 05:55:00,
2013-02-12 01:00:00,45.0,41.0,29.89,NW,315,0.9,1.8,86,0.00,,,0.00,WUHU216HW,2013-02-12 06:00:00,
2013-02-12 01:05:00,44.8,40.9,29.89,WNW,293,0.7,2.0,86,0.00,,,0.00,WUHU216HW,2013-02-12 06:05:00,
2013-02-12 01:10:00,44.6,40.7,29.89,NW,315,0.0,2.0,86,0.00,,,0.00,WUHU216HW,2013-02-12 06:10:00,
2013-02-12 01:15:00,44.5,40.5,29.89,NW,315,1.6,1.6,86,0.00,,,0.00,WUHU216HW,2013-02-12 06:15:00,
2013-02-12 01:20:00,44.3,40.3,29.89,NW,315,0.2,1.6,86,0.00,,,0.00,WUHU216HW,2013-02-12 06:20:00,
2013-02-12 01:25:00,44.1,40.1,29.89,NW,315,0.9,2.0,86,0.00,,,0.00,WUHU216HW,2013-02-12 06:25:00,
2013-02-12 01:30:00,43.7,40.2,29.90,NW,315,2.0,2.0,87,0.00,,,0.00,WUHU216HW,2013-02-12 06:30:00,
2013-02-12 01:35:00,43.6,40.0,29.90,West,270,1.1,4.0,87,0.00,,,0.00,WUHU216HW,2013-02-12 06:35:00,
2013-02-12 01:40:00,43.6,40.0,29.90,WNW,293,0.9,4.0,87,0.00,,,0.00,WUHU216HW,2013-02-12 06:40:00,
2013-02-12 01:45:00,43.4,39.8,29.90,West,270,1.8,3.4,87,0.00,,,0.00,WUHU216HW,2013-02-12 06:45:00,
2013-02-12 01:50:00,43.2,39.2,29.90,NW,315,0.7,4.3,86,0.00,,,0.00,WUHU216HW,2013-02-12 06:50:00,
2013-02-12 01:55:00,43.2,39.2,29.90,NW,315,2.5,4.3,86,0.00,,,0.00,WUHU216HW,2013-02-12 06:55:00,
2013-02-12 02:00:00,43.2,39.2,29.91,NW,315,1.8,2.9,86,0.00,,,0.00,WUHU216HW,2013-02-12 07:00:00,
2013-02-12 02:05:00,43.2,39.0,29.91,WNW,293,2.2,2.9,85,0.00,,,0.00,WUHU216HW,2013-02-12 07:05:00,
2013-02-12 02:10:00,43.2,39.2,29.91,West,270,2.0,2.2,86,0.00,,,0.00,WUHU216HW,2013-02-12 07:10:00,
2013-02-12 02:15:00,43.0,38.8,29.90,WNW,293,1.1,2.5,85,0.00,,,0.00,WUHU216HW,2013-02-12 07:15:00,
2013-02-12 02:20:00,43.0,38.8,29.91,WSW,248,1.1,4.5,85,0.00,,,0.00,WUHU216HW,2013-02-12 07:20:00,
2013-02-12 02:25:00,43.0,38.5,29.91,NW,315,2.5,4.5,84,0.00,,,0.00,WUHU216HW,2013-02-12 07:25:00,
2013-02-12 02:30:00,43.0,38.2,29.91,West,270,2.5,4.3,83,0.00,,,0.00,WUHU216HW,2013-02-12 07:30:00,
2013-02-12 02:35:00,43.2,37.7,29.91,NW,315,2.2,5.6,81,0.00,,,0.00,WUHU216HW,2013-02-12 07:35:00,
2013-02-12 02:40:00,43.0,36.6,29.91,West,270,3.1,5.6,78,0.00,,,0.00,WUHU216HW,2013-02-12 07:40:00,
2013-02-12 02:45:00,43.0,36.9,29.91,West,270,6.5,6.5,79,0.00,,,0.00,WUHU216HW,2013-02-12 07:45:00,
2013-02-12 02:50:00,42.8,36.7,29.92,WSW,248,2.2,6.5,79,0.00,,,0.00,WUHU216HW,2013-02-12 07:50:00,
2013-02-12 02:55:00,42.7,36.3,29.91,West,270,1.8,4.7,78,0.00,,,0.00,WUHU216HW,2013-02-12 07:55:00,
2013-02-12 03:00:00,42.5,35.7,29.91,NW,315,2.0,4.7,77,0.00,,,0.00,WUHU216HW,2013-02-12 08:00:00,
2013-02-12 03:05:00,42.5,35.7,29.91,North,0,2.5,2.9,77,0.00,,,0.00,WUHU216HW,2013-02-12 08:05:00,
2013-02-12 03:10:00,42.3,34.3,29.92,West,270,2.7,7.6,73,0.00,,,0.00,WUHU216HW,2013-02-12 08:10:00,
2013-02-12 03:15:00,42.3,33.7,29.92,NNW,338,5.1,7.6,71,0.00,,,0.00,WUHU216HW,2013-02-12 08:15:00,
2013-02-12 03:20:00,42.3,33.9,29.91,NW,315,5.6,6.7,72,0.00,,,0.00,WUHU216HW,2013-02-12 08:20:00,
2013-02-12 03:25:00,42.3,33.3,29.91,NW,315,7.8,11.6,70,0.00,,,0.00,WUHU216HW,2013-02-12 08:25:00,
2013-02-12 03:30:00,42.1,32.8,29.92,WNW,293,3.4,11.6,69,0.00,,,0.00,WUHU216HW,2013-02-12 08:30:00,
2013-02-12 03:35:00,42.1,32.0,29.93,West,270,2.9,8.1,67,0.00,,,0.00,WUHU216HW,2013-02-12 08:35:00,
2013-02-12 03:40:00,42.1,31.6,29.93,NNW,338,5.1,8.1,66,0.00,,,0.00,WUHU216HW,2013-02-12 08:40:00,
2013-02-12 03:45:00,42.3,32.5,29.92,WNW,293,6.3,7.2,68,0.00,,,0.00,WUHU216HW,2013-02-12 08:45:00,
2013-02-12 03:50:00,42.1,32.3,29.93,West,270,1.3,7.2,68,0.00,,,0.00,WUHU216HW,2013-02-12 08:50:00,
2013-02-12 03:55:00,42.1,32.0,29.93,NW,315,3.8,6.0,67,0.00,,,0.00,WUHU216HW,2013-02-12 08:55:00,
2013-02-12 04:00:00,42.1,31.6,29.93,West,270,4.0,6.9,66,0.00,,,0.00,WUHU216HW,2013-02-12 09:00:00,
2013-02-12 04:05:00,41.9,31.4,29.93,NW,315,6.3,6.9,66,0.00,,,0.00,WUHU216HW,2013-02-12 09:05:00,
2013-02-12 04:10:00,41.8,31.2,29.92,WNW,293,2.5,6.3,66,0.00,,,0.00,WUHU216HW,2013-02-12 09:10:00,
2013-02-12 04:15:00,41.8,31.6,29.93,West,270,2.2,6.3,67,0.00,,,0.00,WUHU216HW,2013-02-12 09:15:00,
2013-02-12 04:20:00,41.6,31.4,29.93,WSW,248,4.3,5.8,67,0.00,,,0.00,WUHU216HW,2013-02-12 09:20:00,
2013-02-12 04:26:00,41.6,31.4,29.93,WNW,293,2.0,7.4,67,0.00,,,0.00,WUHU216HW,2013-02-12 09:26:00,
2013-02-12 04:31:00,41.4,31.2,29.92,West,270,8.5,8.5,67,0.00,,,0.00,WUHU216HW,2013-02-12 09:31:00,
2013-02-12 04:36:00,41.4,31.2,29.93,WNW,293,3.6,8.5,67,0.00,,,0.00,WUHU216HW,2013-02-12 09:36:00,
2013-02-12 04:41:00,41.4,31.2,29.93,NW,315,2.5,5.4,67,0.00,,,0.00,WUHU216HW,2013-02-12 09:41:00,
2013-02-12 04:46:00,41.2,31.1,29.93,WNW,293,3.8,5.4,67,0.00,,,0.00,WUHU216HW,2013-02-12 09:46:00,
2013-02-12 04:51:00,41.2,31.1,29.93,WNW,293,4.9,6.3,67,0.00,,,0.00,WUHU216HW,2013-02-12 09:51:00,
2013-02-12 04:56:00,41.2,30.7,29.93,NW,315,3.1,6.3,66,0.00,,,0.00,WUHU216HW,2013-02-12 09:56:00,
2013-02-12 05:01:00,41.0,30.5,29.93,NW,315,4.7,5.1,66,0.00,,,0.00,WUHU216HW,2013-02-12 10:01:00,
2013-02-12 05:06:00,41.0,30.5,29.94,West,270,4.7,7.2,66,0.00,,,0.00,WUHU216HW,2013-02-12 10:06:00,
2013-02-12 05:11:00,40.9,30.7,29.94,NW,315,2.7,7.2,67,0.00,,,0.00,WUHU216HW,2013-02-12 10:11:00,
2013-02-12 05:16:00,40.7,30.5,29.94,West,270,3.4,6.5,67,0.00,,,0.00,WUHU216HW,2013-02-12 10:16:00,
2013-02-12 05:21:00,40.7,30.5,29.95,West,270,1.3,4.9,67,0.00,,,0.00,WUHU216HW,2013-02-12 10:21:00,
2013-02-12 05:26:00,40.5,30.3,29.95,West,270,1.8,3.1,67,0.00,,,0.00,WUHU216HW,2013-02-12 10:26:00,
2013-02-12 05:31:00,40.3,30.2,29.95,NW,315,2.7,2.7,67,0.00,,,0.00,WUHU216HW,2013-02-12 10:31:00,
2013-02-12 05:36:00,40.3,30.6,29.96,WNW,293,2.0,4.0,68,0.00,,,0.00,WUHU216HW,2013-02-12 10:36:00,
2013-02-12 05:41:00,40.1,30.4,29.96,WSW,248,1.1,4.0,68,0.00,,,0.00,WUHU216HW,2013-02-12 10:41:00,
2013-02-12 05:46:00,40.0,29.8,29.96,NNW,338,2.0,3.1,67,0.00,,,0.00,WUHU216HW,2013-02-12 10:46:00,
2013-02-12 05:51:00,40.0,30.3,29.96,West,270,2.5,2.9,68,0.00,,,0.00,WUHU216HW,2013-02-12 10:51:00,
2013-02-12 05:56:00,40.0,30.3,29.96,WSW,248,2.9,2.9,68,0.00,,,0.00,WUHU216HW,2013-02-12 10:56:00,
2013-02-12 06:01:00,40.0,29.8,29.96,West,270,4.0,4.5,67,0.00,,,0.00,WUHU216HW,2013-02-12 11:01:00,
2013-02-12 06:06:00,40.1,30.0,29.96,NW,315,2.5,5.4,67,0.00,,,0.00,WUHU216HW,2013-02-12 11:06:00,
2013-02-12 06:11:00,40.1,30.0,29.96,WNW,293,1.6,5.4,67,0.00,,,0.00,WUHU216HW,2013-02-12 11:11:00,
2013-02-12 06:16:00,40.1,29.3,29.96,NNW,338,4.7,4.7,65,0.00,,,0.00,WUHU216HW,2013-02-12 11:16:00,
2013-02-12 06:21:00,40.1,29.6,29.96,WNW,293,3.1,4.7,66,0.00,,,0.00,WUHU216HW,2013-02-12 11:21:00,
2013-02-12 06:26:00,40.0,29.4,29.96,West,270,3.4,4.7,66,0.00,,,0.00,WUHU216HW,2013-02-12 11:26:00,
2013-02-12 06:31:00,40.0,29.4,29.96,West,270,2.7,4.7,66,0.00,,,0.00,WUHU216HW,2013-02-12 11:31:00,
2013-02-12 06:36:00,40.0,28.4,29.96,North,0,7.2,7.2,63,0.00,,,0.00,WUHU216HW,2013-02-12 11:36:00,
2013-02-12 06:41:00,40.0,28.7,29.96,WNW,293,9.6,9.6,64,0.00,,,0.00,WUHU216HW,2013-02-12 11:41:00,
2013-02-12 06:46:00,40.0,28.4,29.96,NW,315,5.6,9.6,63,0.00,,,0.00,WUHU216HW,2013-02-12 11:46:00,
2013-02-12 06:51:00,40.0,28.4,29.97,WNW,293,4.9,5.6,63,0.00,,,0.00,WUHU216HW,2013-02-12 11:51:00,
2013-02-12 06:56:00,40.0,28.4,29.97,WNW,293,2.7,6.5,63,0.00,,,0.00,WUHU216HW,2013-02-12 11:56:00,
2013-02-12 07:01:00,40.0,28.4,29.97,WSW,248,2.9,6.5,63,0.00,,,0.00,WUHU216HW,2013-02-12 12:01:00,
2013-02-12 07:06:00,39.8,28.2,29.98,WNW,293,3.4,3.4,63,0.00,,,0.00,WUHU216HW,2013-02-12 12:06:00,
2013-02-12 07:11:00,39.8,28.2,29.98,WNW,293,0.9,4.3,63,0.00,,,0.00,WUHU216HW,2013-02-12 12:11:00,
2013-02-12 07:16:00,39.8,28.2,29.98,West,270,2.0,4.3,63,0.00,,,0.00,WUHU216HW,2013-02-12 12:16:00,
2013-02-12 07:21:00,39.6,27.5,29.98,West,270,4.0,6.5,62,0.00,,,0.00,WUHU216HW,2013-02-12 12:21:00,
2013-02-12 07:26:00,39.8,28.2,29.98,WNW,293,3.4,6.5,63,0.00,,,0.00,WUHU216HW,2013-02-12 12:26:00,
2013-02-12 07:31:00,40.0,27.9,29.99,West,270,2.7,4.7,62,0.00,,,0.00,WUHU216HW,2013-02-12 12:31:00,
2013-02-12 07:36:00,40.0,27.9,29.99,West,270,2.7,4.7,62,0.00,,,0.00,WUHU216HW,2013-02-12 12:36:00,
2013-02-12 07:59:00,41.4,27.3,30.00,NW,315,5.4,5.4,57,0.00,,,0.00,WUHU216HW,2013-02-12 12:59:00,
2013-02-12 08:04:00,41.6,26.6,30.01,NNW,338,11.4,11.6,55,0.00,,,0.00,WUHU216HW,2013-02-12 13:04:00,
2013-02-12 08:09:00,41.8,27.5,30.01,WNW,293,2.5,11.6,57,0.00,,,0.00,WUHU216HW,2013-02-12 13:09:00,
2013-02-12 08:14:00,41.8,26.7,30.02,NW,315,8.7,9.2,55,0.00,,,0.00,WUHU216HW,2013-02-12 13:14:00,
2013-02-12 08:19:00,42.1,27.0,30.02,NW,315,10.5,10.5,55,0.00,,,0.00,WUHU216HW,2013-02-12 13:19:00,
2013-02-12 08:24:00,42.1,26.7,30.01,NW,315,8.5,11.0,54,0.00,,,0.00,WUHU216HW,2013-02-12 13:24:00,
2013-02-12 08:29:00,42.3,27.2,30.02,NW,315,5.4,11.0,55,0.00,,,0.00,WUHU216HW,2013-02-12 13:29:00,
2013-02-12 08:34:00,42.5,27.4,30.02,West,270,4.9,8.7,55,0.00,,,0.00,WUHU216HW,2013-02-12 13:34:00,
2013-02-12 08:39:00,42.5,27.4,30.02,NNW,338,4.7,9.6,55,0.00,,,0.00,WUHU216HW,2013-02-12 13:39:00,
2013-02-12 08:44:00,42.8,27.7,30.02,NW,315,7.8,9.6,55,0.00,,,0.00,WUHU216HW,2013-02-12 13:44:00,
2013-02-12 08:49:00,42.8,27.3,30.02,WSW,248,3.8,7.8,54,0.00,,,0.00,WUHU216HW,2013-02-12 13:49:00,
2013-02-12 08:54:00,43.2,27.2,30.02,NW,315,5.8,7.8,53,0.00,,,0.00,WUHU216HW,2013-02-12 13:54:00,
2013-02-12 08:59:00,43.2,27.2,30.02,NW,315,5.8,6.7,53,0.00,,,0.00,WUHU216HW,2013-02-12 13:59:00,
2013-02-12 09:04:00,43.2,27.6,30.03,WNW,293,8.5,8.5,54,0.00,,,0.00,WUHU216HW,2013-02-12 14:04:00,
2013-02-12 09:09:00,43.2,27.6,30.03,NNW,338,5.8,8.5,54,0.00,,,0.00,WUHU216HW,2013-02-12 14:09:00,
2013-02-12 09:14:00,43.4,26.9,30.03,WNW,293,8.5,10.5,52,0.00,,,0.00,WUHU216HW,2013-02-12 14:14:00,
2013-02-12 09:19:00,43.4,26.9,30.02,NW,315,5.4,11.2,52,0.00,,,0.00,WUHU216HW,2013-02-12 14:19:00,
2013-02-12 09:24:00,43.6,27.6,30.02,NNW,338,1.3,11.2,53,0.00,,,0.00,WUHU216HW,2013-02-12 14:24:00,
2013-02-12 09:29:00,43.9,27.9,30.03,NW,315,5.4,8.5,53,0.00,,,0.00,WUHU216HW,2013-02-12 14:29:00,
2013-02-12 09:34:00,43.9,27.9,30.02,NNW,338,7.6,8.5,53,0.00,,,0.00,WUHU216HW,2013-02-12 14:34:00,
2013-02-12 09:39:00,44.3,28.2,30.02,WSW,248,6.0,7.6,53,0.00,,,0.00,WUHU216HW,2013-02-12 14:39:00,
2013-02-12 09:44:00,44.3,28.2,30.02,West,270,4.9,7.6,53,0.00,,,0.00,WUHU216HW,2013-02-12 14:44:00,
2013-02-12 09:49:00,44.3,27.7,30.02,WSW,248,7.2,10.7,52,0.00,,,0.00,WUHU216HW,2013-02-12 14:49:00,
2013-02-12 09:54:00,44.3,27.7,30.02,NW,315,5.4,10.7,52,0.00,,,0.00,WUHU216HW,2013-02-12 14:54:00,
2013-02-12 09:59:00,44.5,27.9,30.02,NW,315,5.6,9.6,52,0.00,,,0.00,WUHU216HW,2013-02-12 14:59:00,
2013-02-12 10:04:00,44.6,27.2,30.02,NNW,338,4.7,9.6,50,0.00,,,0.00,WUHU216HW,2013-02-12 15:04:00,
2013-02-12 10:09:00,44.6,27.6,30.03,WSW,248,7.8,8.7,51,0.00,,,0.00,WUHU216HW,2013-02-12 15:09:00,
2013-02-12 10:14:00,44.8,27.8,30.03,WNW,293,7.8,8.3,51,0.00,,,0.00,WUHU216HW,2013-02-12 15:14:00,
2013-02-12 10:19:00,45.0,27.6,30.02,West,270,5.1,10.5,50,0.00,,,0.00,WUHU216HW,2013-02-12 15:19:00,
2013-02-12 10:24:00,45.0,27.6,30.02,West,270,5.4,10.5,50,0.00,,,0.00,WUHU216HW,2013-02-12 15:24:00,
2013-02-12 10:29:00,45.2,28.1,30.03,NW,315,6.3,8.5,51,0.00,,,0.00,WUHU216HW,2013-02-12 15:29:00,
2013-02-12 10:34:00,45.4,28.3,30.03,NW,315,2.5,6.9,51,0.00,,,0.00,WUHU216HW,2013-02-12 15:34:00,
2013-02-12 10:39:00,45.7,28.6,30.04,WNW,293,10.5,10.5,51,0.00,,,0.00,WUHU216HW,2013-02-12 15:39:00,
2013-02-12 10:44:00,45.5,27.5,30.03,NNW,338,9.8,10.5,49,0.00,,,0.00,WUHU216HW,2013-02-12 15:44:00,
2013-02-12 10:49:00,45.5,27.5,30.03,NW,315,8.5,10.1,49,0.00,,,0.00,WUHU216HW,2013-02-12 15:49:00,
2013-02-12 10:54:00,45.7,27.6,30.04,NW,315,4.5,11.0,49,0.00,,,0.00,WUHU216HW,2013-02-12 15:54:00,
2013-02-12 10:59:00,46.1,27.9,30.03,NW,315,8.5,11.0,49,0.00,,,0.00,WUHU216HW,2013-02-12 15:59:00,
2013-02-12 11:04:00,46.4,28.8,30.04,NW,315,2.5,8.5,50,0.00,,,0.00,WUHU216HW,2013-02-12 16:04:00,
2013-02-12 11:09:00,46.8,28.6,30.04,WSW,248,4.9,4.9,49,0.00,,,0.00,WUHU216HW,2013-02-12 16:09:00,
2013-02-12 11:14:00,47.0,28.7,30.04,WSW,248,9.2,9.2,49,0.00,,,0.00,WUHU216HW,2013-02-12 16:14:00,
2013-02-12 11:19:00,46.6,28.5,30.04,WSW,248,4.3,9.2,49,0.00,,,0.00,WUHU216HW,2013-02-12 16:19:00,
2013-02-12 11:24:00,46.8,28.1,30.04,West,270,8.3,8.3,48,0.00,,,0.00,WUHU216HW,2013-02-12 16:24:00,
2013-02-12 11:29:00,47.0,28.7,30.04,WNW,293,2.7,11.6,49,0.00,,,0.00,WUHU216HW,2013-02-12 16:29:00,
2013-02-12 11:34:00,47.2,28.4,30.04,NW,315,8.1,11.6,48,0.00,,,0.00,WUHU216HW,2013-02-12 16:34:00,
2013-02-12 11:39:00,46.6,27.9,30.04,North,0,6.9,16.1,48,0.00,,,0.00,WUHU216HW,2013-02-12 16:39:00,
2013-02-12 11:44:00,46.4,27.2,30.05,NNW,338,7.6,16.1,47,0.00,,,0.00,WUHU216HW,2013-02-12 16:44:00,
2013-02-12 11:49:00,46.6,27.4,30.05,NW,315,12.3,12.3,47,0.00,,,0.00,WUHU216HW,2013-02-12 16:49:00,
2013-02-12 11:54:00,46.8,27.6,30.05,WSW,248,3.6,12.3,47,0.00,,,0.00,WUHU216HW,2013-02-12 16:54:00,
2013-02-12 11:59:00,46.8,28.1,30.05,West,270,3.6,10.5,48,0.00,,,0.00,WUHU216HW,2013-02-12 16:59:00,
2013-02-12 12:04:00,47.2,28.9,30.05,West,270,5.6,7.6,49,0.00,,,0.00,WUHU216HW,2013-02-12 17:04:00,
2013-02-12 12:09:00,47.2,28.4,30.05,WNW,293,6.0,10.7,48,0.00,,,0.00,WUHU216HW,2013-02-12 17:09:00,
2013-02-12 12:14:00,47.0,28.2,30.05,NW,315,3.4,10.7,48,0.00,,,0.00,WUHU216HW,2013-02-12 17:14:00,
2013-02-12 12:19:00,47.2,28.4,30.04,NW,315,7.4,8.5,48,0.00,,,0.00,WUHU216HW,2013-02-12 17:19:00,
2013-02-12 12:24:00,47.2,28.4,30.04,WNW,293,5.1,7.8,48,0.00,,,0.00,WUHU216HW,2013-02-12 17:24:00,
2013-02-12 12:29:00,47.0,27.6,30.04,NW,315,8.1,8.1,47,0.00,,,0.00,WUHU216HW,2013-02-12 17:29:00,
2013-02-12 12:35:00,47.0,27.1,30.04,NW,315,8.9,8.9,46,0.00,,,0.00,WUHU216HW,2013-02-12 17:35:00,
2013-02-12 12:40:00,47.0,27.1,30.04,NNW,338,9.4,9.4,46,0.00,,,0.00,WUHU216HW,2013-02-12 17:40:00,
2013-02-12 12:45:00,47.0,27.1,30.04,NNW,338,9.4,9.4,46,0.00,,,0.00,WUHU216HW,2013-02-12 17:45:00,
2013-02-12 13:00:00,47.5,28.2,30.04,NW,315,3.8,3.8,47,0.00,,,0.00,WUHU216HW,2013-02-12 18:00:00,
2013-02-12 13:05:00,47.5,28.2,30.04,NW,315,6.7,7.8,47,0.00,,,0.00,WUHU216HW,2013-02-12 18:05:00,
2013-02-12 13:10:00,47.3,28.5,30.04,West,270,7.6,11.2,48,0.00,,,0.00,WUHU216HW,2013-02-12 18:10:00,
2013-02-12 13:15:00,47.2,27.8,30.04,NW,315,8.9,11.2,47,0.00,,,0.00,WUHU216HW,2013-02-12 18:15:00,
2013-02-12 13:20:00,47.3,27.5,30.04,WSW,248,8.9,8.9,46,0.00,,,0.00,WUHU216HW,2013-02-12 18:20:00,
2013-02-12 13:25:00,47.2,27.8,30.04,WNW,293,4.7,12.8,47,0.00,,,0.00,WUHU216HW,2013-02-12 18:25:00,
2013-02-12 13:30:00,47.7,28.9,30.04,NW,315,4.0,12.8,48,0.00,,,0.00,WUHU216HW,2013-02-12 18:30:00,
2013-02-12 13:35:00,48.1,28.1,30.04,NNW,338,7.4,7.4,46,0.00,,,0.00,WUHU216HW,2013-02-12 18:35:00,
2013-02-12 13:40:00,48.1,28.1,30.04,West,270,5.4,9.6,46,0.00,,,0.00,WUHU216HW,2013-02-12 18:40:00,
2013-02-12 13:45:00,47.9,28.4,30.04,NW,315,5.6,10.3,47,0.00,,,0.00,WUHU216HW,2013-02-12 18:45:00,
2013-02-12 13:50:00,48.2,29.3,30.03,SW,225,4.3,10.3,48,0.00,,,0.00,WUHU216HW,2013-02-12 18:50:00,
2013-02-12 13:55:00,48.6,29.2,30.03,WSW,248,4.5,4.7,47,0.00,,,0.00,WUHU216HW,2013-02-12 18:55:00,
2013-02-12 14:00:00,48.8,28.8,30.03,West,270,6.3,7.4,46,0.00,,,0.00,WUHU216HW,2013-02-12 19:00:00,
2013-02-12 14:05:00,48.8,29.4,30.03,NNW,338,2.9,7.4,47,0.00,,,0.00,WUHU216HW,2013-02-12 19:05:00,
2013-02-12 14:10:00,49.1,29.2,30.03,North,0,8.3,8.3,46,0.00,,,0.00,WUHU216HW,2013-02-12 19:10:00,
2013-02-12 14:15:00,48.6,28.1,30.04,West,270,6.0,9.8,45,0.00,,,0.00,WUHU216HW,2013-02-12 19:15:00,
2013-02-12 14:19:00,48.4,27.9,30.03,NNW,338,3.4,9.8,45,0.00,,,0.00,WUHU216HW,2013-02-12 19:19:00,
2013-02-12 14:25:00,47.9,27.9,30.03,NW,315,4.7,8.3,46,0.00,,,0.00,WUHU216HW,2013-02-12 19:25:00,
2013-02-12 14:29:00,48.4,29.0,30.03,WNW,293,5.8,7.6,47,0.00,,,0.00,WUHU216HW,2013-02-12 19:29:00,
2013-02-12 14:34:00,49.1,29.7,30.03,NW,315,4.5,5.8,47,0.00,,,0.00,WUHU216HW,2013-02-12 19:34:00,
2013-02-12 14:39:00,49.5,29.4,30.03,West,270,4.3,5.6,46,0.00,,,0.00,WUHU216HW,2013-02-12 19:39:00,
2013-02-12 14:44:00,49.5,28.9,30.02,WNW,293,4.9,9.2,45,0.00,,,0.00,WUHU216HW,2013-02-12 19:44:00,
2013-02-12 14:49:00,49.1,28.6,30.02,NW,315,5.4,9.2,45,0.00,,,0.00,WUHU216HW,2013-02-12 19:49:00,
2013-02-12 14:54:00,49.0,29.0,30.01,North,0,5.4,8.9,46,0.00,,,0.00,WUHU216HW,2013-02-12 19:54:00,
2013-02-12 14:59:00,49.1,29.2,30.02,NNW,338,3.6,6.7,46,0.00,,,0.00,WUHU216HW,2013-02-12 19:59:00,
2013-02-12 15:04:00,49.3,29.4,30.02,NW,315,2.9,6.7,46,0.00,,,0.00,WUHU216HW,2013-02-12 20:04:00,
2013-02-12 15:09:00,49.5,29.4,30.02,NNW,338,4.5,4.5,46,0.00,,,0.00,WUHU216HW,2013-02-12 20:09:00,
2013-02-12 15:14:00,49.5,28.9,30.02,NNW,338,7.6,7.6,45,0.00,,,0.00,WUHU216HW,2013-02-12 20:14:00,
2013-02-12 15:19:00,49.5,28.9,30.01,NW,315,6.0,7.6,45,0.00,,,0.00,WUHU216HW,2013-02-12 20:19:00,
2013-02-12 15:24:00,49.3,28.7,30.01,WNW,293,4.5,6.0,45,0.00,,,0.00,WUHU216HW,2013-02-12 20:24:00,
2013-02-12 15:29:00,49.3,29.4,30.01,WSW,248,5.4,6.0,46,0.00,,,0.00,WUHU216HW,2013-02-12 20:29:00,
2013-02-12 15:34:00,49.3,29.4,30.01,NNW,338,4.0,6.7,46,0.00,,,0.00,WUHU216HW,2013-02-12 20:34:00,
2013-02-12 15:39:00,49.5,29.4,30.01,WNW,293,2.5,6.7,46,0.00,,,0.00,WUHU216HW,2013-02-12 20:39:00,
2013-02-12 15:44:00,49.9,29.3,30.01,West,270,8.5,8.5,45,0.00,,,0.00,WUHU216HW,2013-02-12 20:44:00,
2013-02-12 15:49:00,49.7,29.1,30.00,NNW,338,6.0,8.5,45,0.00,,,0.00,WUHU216HW,2013-02-12 20:49:00,
2013-02-12 15:54:00,49.3,28.2,30.00,NNW,338,6.3,8.5,44,0.00,,,0.00,WUHU216HW,2013-02-12 20:54:00,
2013-02-12 15:59:00,48.6,28.1,29.99,WSW,248,4.0,8.9,45,0.00,,,0.00,WUHU216HW,2013-02-12 20:59:00,
2013-02-12 16:04:00,48.4,28.5,29.98,NNW,338,2.9,8.9,46,0.00,,,0.00,WUHU216HW,2013-02-12 21:04:00,
2013-02-12 16:09:00,48.4,29.0,29.97,NW,315,3.4,4.7,47,0.00,,,0.00,WUHU216HW,2013-02-12 21:09:00,
2013-02-12 16:14:00,48.2,28.8,29.96,NNE,23,2.5,6.3,47,0.00,,,0.00,WUHU216HW,2013-02-12 21:14:00,
2013-02-12 16:19:00,48.1,28.6,29.97,NW,315,3.4,6.3,47,0.00,,,0.00,WUHU216HW,2013-02-12 21:19:00,
2013-02-12 16:24:00,48.1,28.6,29.97,NW,315,3.4,6.3,47,0.00,,,0.00,WUHU216HW,2013-02-12 21:24:00,
2013-02-12 16:46:00,46.3,27.5,30.01,NW,315,4.7,4.7,48,0.00,,,0.00,WUHU216HW,2013-02-12 21:46:00,
2013-02-12 16:51:00,46.3,27.5,30.01,WNW,293,3.6,5.8,48,0.00,,,0.00,WUHU216HW,2013-02-12 21:51:00,
2013-02-12 16:56:00,46.1,27.4,30.02,WNW,293,4.7,5.8,48,0.00,,,0.00,WUHU216HW,2013-02-12 21:56:00,
2013-02-12 17:01:00,46.1,27.9,30.03,WNW,293,1.1,5.4,49,0.00,,,0.00,WUHU216HW,2013-02-12 22:01:00,
2013-02-12 17:06:00,45.9,27.8,30.05,NW,315,5.8,5.8,49,0.00,,,0.00,WUHU216HW,2013-02-12 22:06:00,
2013-02-12 17:11:00,45.2,27.1,30.06,WNW,293,2.5,6.3,49,0.00,,,0.00,WUHU216HW,2013-02-12 22:11:00,
2013-02-12 17:16:00,44.5,27.0,30.06,West,270,3.4,6.3,50,0.00,,,0.00,WUHU216HW,2013-02-12 22:16:00,
2013-02-12 17:21:00,44.1,27.2,30.05,NNW,338,4.0,6.7,51,0.00,,,0.00,WUHU216HW,2013-02-12 22:21:00,
2013-02-12 17:26:00,43.7,26.8,30.07,West,270,2.2,6.7,51,0.00,,,0.00,WUHU216HW,2013-02-12 22:26:00,
2013-02-12 17:31:00,43.4,26.5,30.07,NW,315,3.4,6.5,51,0.00,,,0.00,WUHU216HW,2013-02-12 22:31:00,
2013-02-12 17:36:00,43.0,26.6,30.09,West,270,4.0,6.5,52,0.00,,,0.00,WUHU216HW,2013-02-12 22:36:00,
2013-02-12 17:41:00,42.8,26.5,30.09,WNW,293,3.4,5.8,52,0.00,,,0.00,WUHU216HW,2013-02-12 22:41:00,
2013-02-12 17:46:00,42.7,26.3,30.09,NW,315,3.1,5.8,52,0.00,,,0.00,WUHU216HW,2013-02-12 22:46:00,
2013-02-12 17:51:00,42.7,26.3,30.09,NW,315,3.1,3.1,52,0.00,,,0.00,WUHU216HW,2013-02-12 22:51:00,
2013-02-12 18:00:00,41.9,26.0,30.10,NW,315,1.8,1.8,53,0.00,,,0.00,WUHU216HW,2013-02-12 23:00:00,
2013-02-12 18:05:00,41.8,25.8,30.10,NW,315,1.3,1.8,53,0.00,,,0.00,WUHU216HW,2013-02-12 23:05:00,
2013-02-12 18:10:00,41.6,26.1,30.10,West,270,1.1,1.8,54,0.00,,,0.00,WUHU216HW,2013-02-12 23:10:00,
2013-02-12 18:15:00,41.4,25.9,30.10,NW,315,1.1,3.8,54,0.00,,,0.00,WUHU216HW,2013-02-12 23:15:00,
2013-02-12 18:20:00,41.4,25.9,30.10,WNW,293,0.9,3.8,54,0.00,,,0.00,WUHU216HW,2013-02-12 23:20:00,
2013-02-12 18:25:00,41.2,25.8,30.10,NW,315,2.7,3.1,54,0.00,,,0.00,WUHU216HW,2013-02-12 23:25:00,
2013-02-12 18:30:00,41.0,26.0,30.10,North,0,3.4,3.4,55,0.00,,,0.00,WUHU216HW,2013-02-12 23:30:00,
2013-02-12 18:35:00,40.7,25.7,30.10,NW,315,2.2,3.4,55,0.00,,,0.00,WUHU216HW,2013-02-12 23:35:00,
2013-02-12 18:40:00,40.7,25.7,30.11,North,0,1.1,2.5,55,0.00,,,0.00,WUHU216HW,2013-02-12 23:40:00,
2013-02-12 18:45:00,40.5,25.9,30.11,NNW,338,1.8,2.9,56,0.00,,,0.00,WUHU216HW,2013-02-12 23:45:00,
2013-02-12 18:50:00,40.3,25.7,30.11,WNW,293,2.5,2.9,56,0.00,,,0.00,WUHU216HW,2013-02-12 23:50:00,
2013-02-12 18:55:00,40.1,25.6,30.11,NNW,338,1.8,2.5,56,0.00,,,0.00,WUHU216HW,2013-02-12 23:55:00,
2013-02-12 19:00:00,40.0,25.8,30.11,WNW,293,0.4,3.8,57,0.00,,,0.00,WUHU216HW,2013-02-13 00:00:00,
2013-02-12 19:05:00,40.0,25.8,30.11,WNW,293,1.1,3.8,57,0.00,,,0.00,WUHU216HW,2013-02-13 00:05:00,
2013-02-12 19:10:00,39.8,25.7,30.11,NW,315,0.0,2.2,57,0.00,,,0.00,WUHU216HW,2013-02-13 00:10:00,
2013-02-12 19:15:00,39.6,25.5,30.11,West,270,1.6,2.2,57,0.00,,,0.00,WUHU216HW,2013-02-13 00:15:00,
2013-02-12 19:20:00,39.4,25.7,30.11,WNW,293,1.1,2.0,58,0.00,,,0.00,WUHU216HW,2013-02-13 00:20:00,
2013-02-12 19:25:00,39.2,25.6,30.11,North,0,2.5,3.6,58,0.00,,,0.00,WUHU216HW,2013-02-13 00:25:00,
2013-02-12 19:30:00,39.2,25.6,30.11,NNW,338,4.5,4.5,58,0.00,,,0.00,WUHU216HW,2013-02-13 00:30:00,
2013-02-12 19:35:00,39.2,25.6,30.11,North,0,1.1,4.5,58,0.00,,,0.00,WUHU216HW,2013-02-13 00:35:00,
2013-02-12 19:40:00,39.1,25.5,30.11,NW,315,0.9,2.5,58,0.00,,,0.00,WUHU216HW,2013-02-13 00:40:00,
2013-02-12 19:45:00,38.9,25.8,30.12,NNW,338,2.2,2.2,59,0.00,,,0.00,WUHU216HW,2013-02-13 00:45:00,
2013-02-12 19:49:00,38.9,25.8,30.11,NNW,338,2.5,2.5,59,0.00,,,0.00,WUHU216HW,2013-02-13 00:49:00,
2013-02-12 19:54:00,38.7,25.6,30.11,NNW,338,0.4,2.9,59,0.00,,,0.00,WUHU216HW,2013-02-13 00:54:00,
2013-02-12 19:59:00,38.5,25.4,30.10,NNW,338,0.9,2.9,59,0.00,,,0.00,WUHU216HW,2013-02-13 00:59:00,
2013-02-12 20:04:00,38.5,25.4,30.10,NNW,338,1.3,3.4,59,0.00,,,0.00,WUHU216HW,2013-02-13 01:04:00,
2013-02-12 20:09:00,38.5,25.8,30.10,NNW,338,1.3,3.4,60,0.00,,,0.00,WUHU216HW,2013-02-13 01:09:00,
2013-02-12 20:14:00,38.3,25.7,30.09,NNW,338,0.4,2.2,60,0.00,,,0.00,WUHU216HW,2013-02-13 01:14:00,
2013-02-12 20:19:00,38.2,25.5,30.09,WNW,293,0.0,2.2,60,0.00,,,0.00,WUHU216HW,2013-02-13 01:19:00,
2013-02-12 20:24:00,38.2,25.5,30.10,WNW,293,0.4,1.1,60,0.00,,,0.00,WUHU216HW,2013-02-13 01:24:00,
2013-02-12 20:29:00,38.0,25.3,30.09,WNW,293,0.4,0.7,60,0.00,,,0.00,WUHU216HW,2013-02-13 01:29:00,
2013-02-12 20:34:00,37.8,25.6,30.09,North,0,0.7,0.9,61,0.00,,,0.00,WUHU216HW,2013-02-13 01:34:00,
2013-02-12 20:39:00,37.8,25.6,30.09,North,0,0.0,0.9,61,0.00,,,0.00,WUHU216HW,2013-02-13 01:39:00,
2013-02-12 20:44:00,37.6,25.0,30.08,NNW,338,0.4,1.1,60,0.00,,,0.00,WUHU216HW,2013-02-13 01:44:00,
2013-02-12 20:49:00,37.4,24.8,30.08,NNW,338,0.0,1.1,60,0.00,,,0.00,WUHU216HW,2013-02-13 01:49:00,
2013-02-12 20:54:00,37.3,25.0,30.08,NNW,338,0.4,1.1,61,0.00,,,0.00,WUHU216HW,2013-02-13 01:54:00,
2013-02-12 20:59:00,37.1,24.9,30.07,NNW,338,0.7,0.7,61,0.00,,,0.00,WUHU216HW,2013-02-13 01:59:00,
2013-02-12 21:04:00,37.1,24.9,30.07,NNW,338,0.0,0.7,61,0.00,,,0.00,WUHU216HW,2013-02-13 02:04:00,
2013-02-12 21:09:00,36.9,24.8,30.07,NNW,338,0.0,0.7,61,0.00,,,0.00,WUHU216HW,2013-02-13 02:09:00,
2013-02-12 21:14:00,36.7,24.6,30.07,West,270,0.2,0.4,61,0.00,,,0.00,WUHU216HW,2013-02-13 02:14:00,
2013-02-12 21:19:00,36.7,24.9,30.07,WSW,248,1.6,1.6,62,0.00,,,0.00,WUHU216HW,2013-02-13 02:19:00,
2013-02-12 21:24:00,36.4,24.6,30.07,WSW,248,1.1,1.8,62,0.00,,,0.00,WUHU216HW,2013-02-13 02:24:00,
2013-02-12 21:29:00,36.2,24.5,30.07,SW,225,0.9,1.8,62,0.00,,,0.00,WUHU216HW,2013-02-13 02:29:00,
2013-02-12 21:34:00,36.0,24.3,30.07,SW,225,0.4,1.6,62,0.00,,,0.00,WUHU216HW,2013-02-13 02:34:00,
2013-02-12 21:39:00,35.8,24.1,30.07,SW,225,1.1,1.6,62,0.00,,,0.00,WUHU216HW,2013-02-13 02:39:00,
2013-02-12 21:44:00,35.6,24.3,30.07,SW,225,1.1,1.6,63,0.00,,,0.00,WUHU216HW,2013-02-13 02:44:00,
2013-02-12 21:49:00,35.6,24.3,30.07,SW,225,1.1,1.3,63,0.00,,,0.00,WUHU216HW,2013-02-13 02:49:00,
2013-02-12 21:54:00,35.3,23.9,30.07,SW,225,0.9,1.1,63,0.00,,,0.00,WUHU216HW,2013-02-13 02:54:00,
2013-02-12 21:59:00,35.1,24.1,30.07,SW,225,0.9,1.3,64,0.00,,,0.00,WUHU216HW,2013-02-13 02:59:00,
2013-02-12 22:04:00,34.9,23.9,30.07,SW,225,1.1,1.3,64,0.00,,,0.00,WUHU216HW,2013-02-13 03:04:00,
2013-02-12 22:09:00,34.7,23.8,30.07,SW,225,1.1,1.3,64,0.00,,,0.00,WUHU216HW,2013-02-13 03:09:00,
2013-02-12 22:14:00,34.7,24.1,30.08,SW,225,1.1,1.1,65,0.00,,,0.00,WUHU216HW,2013-02-13 03:14:00,
2013-02-12 22:19:00,34.6,23.9,30.07,SW,225,0.4,1.8,65,0.00,,,0.00,WUHU216HW,2013-02-13 03:19:00,
2013-02-12 22:24:00,34.6,23.9,30.07,SW,225,0.4,1.8,65,0.00,,,0.00,WUHU216HW,2013-02-13 03:24:00,
2013-02-12 22:29:00,34.6,24.3,30.07,WSW,248,0.4,1.3,66,0.00,,,0.00,WUHU216HW,2013-02-13 03:29:00,
2013-02-12 22:35:00,34.6,24.3,30.07,SW,225,0.9,1.1,66,0.00,,,0.00,WUHU216HW,2013-02-13 03:35:00,
2013-02-12 22:40:00,34.4,24.1,30.08,SW,225,0.4,1.3,66,0.00,,,0.00,WUHU216HW,2013-02-13 03:40:00,
2013-02-12 22:45:00,34.4,24.1,30.08,SW,225,0.2,1.3,66,0.00,,,0.00,WUHU216HW,2013-02-13 03:45:00,
2013-02-12 22:50:00,34.2,23.9,30.08,SW,225,0.4,0.4,66,0.00,,,0.00,WUHU216HW,2013-02-13 03:50:00,
2013-02-12 22:55:00,34.2,24.3,30.08,SW,225,0.2,0.4,67,0.00,,,0.00,WUHU216HW,2013-02-13 03:55:00,
2013-02-12 23:00:00,34.2,24.3,30.08,SW,225,0.0,0.4,67,0.00,,,0.00,WUHU216HW,2013-02-13 04:00:00,
2013-02-12 23:05:00,34.2,24.3,30.09,SW,225,0.4,0.4,67,0.00,,,0.00,WUHU216HW,2013-02-13 04:05:00,
2013-02-12 23:10:00,34.2,24.3,30.08,SW,225,0.2,0.4,67,0.00,,,0.00,WUHU216HW,2013-02-13 04:10:00,
2013-02-12 23:15:00,34.0,24.1,30.08,SW,225,0.0,0.4,67,0.00,,,0.00,WUHU216HW,2013-02-13 04:15:00,
2013-02-12 23:20:00,34.0,24.1,30.08,SW,225,0.0,0.2,67,0.00,,,0.00,WUHU216HW,2013-02-13 04:20:00,
2013-02-12 23:25:00,34.0,24.1,30.08,SW,225,0.0,0.2,67,0.00,,,0.00,WUHU216HW,2013-02-13 04:25:00,
2013-02-12 23:30:00,33.8,23.9,30.08,SW,225,0.4,0.4,67,0.00,,,0.00,WUHU216HW,2013-02-13 04:30:00,
2013-02-12 23:35:00,33.8,24.3,30.08,SW,225,0.0,0.7,68,0.00,,,0.00,WUHU216HW,2013-02-13 04:35:00,
2013-02-12 23:40:00,33.8,24.3,30.08,SW,225,0.0,0.7,68,0.00,,,0.00,WUHU216HW,2013-02-13 04:40:00,
2013-02-12 23:45:00,33.7,24.1,30.09,SW,225,0.4,1.1,68,0.00,,,0.00,WUHU216HW,2013-02-13 04:45:00,
2013-02-12 23:50:00,33.7,24.1,30.09,SW,225,0.7,1.1,68,0.00,,,0.00,WUHU216HW,2013-02-13 04:50:00,
2013-02-12 23:55:00,33.5,24.3,30.09,WSW,248,1.1,1.1,69,0.00,,,0.00,WUHU216HW,2013-02-13 04:55:00,